This is the latest recevied weather packets stored in our database for station/object W6SNO-1. If no packets are shown the sender has not sent any weather packets the latest 10 day(s).
| Time | Temp. | Humidity | Pressure | Rain* | Wind** | Luminosity | Snow |
|---|---|---|---|---|---|---|---|
| 1787694222 | 28.89° C | 45% | 1015.9 hPa | 0 mm | - | 607 W/m² | - |
| 1787693918 | 28.33° C | 46% | 1016 hPa | 0 mm | - | 688 W/m² | - |
| 1787693613 | 28.33° C | 45% | 1016.3 hPa | 0 mm | - | 696 W/m² | - |
| 1787693310 | 28.89° C | 44% | 1016 hPa | 0 mm | - | 700 W/m² | - |
| 1787693005 | 28.89° C | 46% | 1016.1 hPa | 0 mm | - | 706 W/m² | - |
| 1787692700 | 28.89° C | 47% | 1016.1 hPa | 0 mm | - | 712 W/m² | - |
| 1787692396 | 28.33° C | 48% | 1016.3 hPa | 0 mm | - | 736 W/m² | - |
| 1787692090 | 28.33° C | 48% | 1016.2 hPa | 0 mm | - | 526 W/m² | - |
| 1787691789 | 28.33° C | 49% | 1016.2 hPa | 0 mm | - | 647 W/m² | - |
| 1787691489 | 28.33° C | 48% | 1016.3 hPa | 0 mm | - | 689 W/m² | - |
| 1787691187 | 28.33° C | 49% | 1016.3 hPa | 0 mm | - | 730 W/m² | - |
| 1787690883 | 27.78° C | 48% | 1016.3 hPa | 0 mm | - | 700 W/m² | - |
| 1787690582 | 27.78° C | 50% | 1016.5 hPa | 0 mm | - | 798 W/m² | - |
| 1787690278 | 27.78° C | 48% | 1016.6 hPa | 0 mm | - | 790 W/m² | - |
| 1787689975 | 28.33° C | 49% | 1016.7 hPa | 0 mm | - | 742 W/m² | - |
| 1787689669 | 27.78° C | 50% | 1016.7 hPa | 0 mm | - | 741 W/m² | - |
| 1787689365 | 27.22° C | 51% | 1016.7 hPa | 0 mm | - | 811 W/m² | - |
| 1787689064 | 27.22° C | 49% | 1016.7 hPa | 0 mm | - | 707 W/m² | - |
| 1787688761 | 26.11° C | 52% | 1016.8 hPa | 0 mm | - | 860 W/m² | - |
| 1787688456 | 26.11° C | 52% | 1016.9 hPa | 0 mm | - | 886 W/m² | - |
| 1787688145 | 27.22° C | 51% | 1016.9 hPa | 0 mm | - | 857 W/m² | - |
| 1787687841 | 26.67° C | 53% | 1016.9 hPa | 0 mm | - | 872 W/m² | - |
| 1787687540 | 26.11° C | 53% | 1016.8 hPa | 0 mm | - | 848 W/m² | - |
| 1787687236 | 25.56° C | 53% | 1017 hPa | 0 mm | - | 868 W/m² | - |
| 1787686932 | 25° C | 55% | 1017 hPa | 0 mm | - | 599 W/m² | - |
* Rain latest hour (hover to see other rain measurements)
** Current wind speed in m/s (hover to see current wind gust speed)